Location: Bailen
(14.1842°N, 120.7958°E)
Time: 13:08:28
(UTC+00:00)

Lacrosse 4 Rocket - Pass Details

Date: 22 April 2026
Orbit: 506 x 567 km, 68.0° (Epoch: 12 May)

Event Time Altitude Azimuth Distance (km) Brightness Sun altitude
Exits shadow 21:15:17 - 230° (SW) 2,084 3.7 -6.4°
Reaches altitude 10° 21:16:22 10° 238° (WSW) 1,714 3.2 -6.2°
Maximum altitude 21:19:27 23° 292° (WNW) 1,110 2.4 -5.4°
Drops below altitude 10° 21:22:33 10° 346° (NNW) 1,731 3.9 -4.7°
Sets 21:25:04 0° 1° (N) 2,628 5.0 -4.1°
